Location: Asheville, NC
(35.6000°N, 82.5500°W)
Time: 19:55:32
(UTC-04:00)

Hubble Space Telescope - Pass Details

Date: 13 December 2017
Orbit: 537 x 541 km, 28.5° (Epoch: 26 May)

Event Time Altitude Azimuth Distance (km) Brightness Sun altitude
Rises 18:53:33 0° 257° (WSW) 2,675 6.0 -18.9°
Reaches altitude 10° 18:56:01 10° 246° (WSW) 1,784 4.6 -19.3°
Maximum altitude 18:59:35 28° 186° (S) 1,013 2.3 -20.0°
Enters shadow 19:01:09 22° 149° (SSE) 1,201 2.4 -20.3°
